Regional Weather Roundup
Issued by NWS

Home | Current Version | Previous Version | Text Only | Print | Product List | Glossary Off
Versions: 1 2 3 4 5 6 7 8 9 10 11 12 13 14 15 16 17 18 19 20 21 22 23 24 25 26 27

000
ASUS45 KBOU 220507
RWRCO

WEATHER ROUNDUP FOR COLORADO
NATIONAL WEATHER SERVICE DENVER/BOULDER CO
1000 PM MST SAT JAN 21 2017

NOTE: "FAIR" INDICATES FEW OR NO CLOUDS BELOW 12000 FEET WITH NO
SIGNIFICANT WEATHER AND/OR OBSTRUCTIONS TO VISIBILITY.

COZ001>005-013-030-031-220600-
...NORTHWEST COLORADO...

CITY           SKY/WX    TMP DP  RH WIND       PRES   REMARKS
CRAIG          LGT SNOW  27  23  85 SW12      29.81R FOG     WCI  17
HAYDEN         CLOUDY    25  19  80 W7        29.79R WCI  17
MEEKER         LGT SNOW  26  25  96 MISG      29.81R FOG
MOUNT WERNER   NOT AVBL
STEAMBOAT SPGS CLOUDY    24  21  91 SW7       29.77R WCI  15
WALDEN           N/A     18  14  86 CALM      29.72R
$$

COZ006>008-011-220600-
...WEST CENTRAL VALLEYS...

CITY           SKY/WX    TMP DP  RH WIND       PRES   REMARKS
GRAND JUNCTION CLOUDY    34  28  79 W7        29.85R WCI  28
MONTROSE       CLOUDY    30  29  96 NW17      29.86R WCI  18
EAGLE          CLOUDY    27  25  93 CALM      29.79R
RIFLE          CLOUDY    34  25  69 W7        29.82R WCI  28
DELTA          MOCLDY    37  26  64 W21G26    29.83R
NUCLA          CLOUDY    32  27  80 MISG      29.90R
$$

COZ017>023-064>068-220600-
...SOUTHWEST COLORADO...

CITY           SKY/WX    TMP DP  RH WIND       PRES   REMARKS
DURANGO        FAIR      28  20  71 W17G24    29.78R WCI  16
CORTEZ         CLOUDY    29  28  96 W8        29.87R WCI  21
PAGOSA SPRINGS CLOUDY    26  25  99 CALM      29.77R
TELLURIDE      NOT AVBL
WOLF CREEK PAS CLOUDY    10  10 100 SW7       29.74R WCI   0
$$

COZ009-010-012-014-032>034-037-058>063-220600-
...CENTRAL COLORADO...

CITY           SKY/WX    TMP DP  RH WIND       PRES   REMARKS
ASPEN          LGT SNOW  24  23  96 N9        29.75R FOG     WCI  14
BUENA VISTA    FAIR      19  14  82 NW3       29.67R
COPPER MTN     NOT AVBL
BERTHOUD PASS  NOT AVBL
COTTONWOOD PAS FAIR      25  12  58 W9G16     29.67R WCI  15
GUNNISON       CLOUDY    13  11  92 CALM      29.75R
KREMMLING      CLOUDY    21  18  86 CALM      29.76R
LEADVILLE      LGT SNOW  17  14  88 N6        29.66R FOG     WCI   9
MONARCH PASS   CLOUDY    12  10  92 NW5       29.78R WCI   4
SALIDA         FAIR      28  24  87 CALM      29.75R
SUNLIGHT       CLOUDY   N/A N/A N/A MISG      29.78R
WILKERSON PASS FAIR      14  10  85 N13G25    29.67R WCI   0
$$

COZ069>075-220600-
...SAN LUIS VALLEY/SANGRE DE CRISTO MOUNTAINS...

CITY           SKY/WX    TMP DP  RH WIND       PRES   REMARKS
ALAMOSA        CLOUDY    12  10  92 W5        29.70R WCI   4
LA VETA PASS   LGT SNOW  21  18  86 NE17G23   29.64R WCI   7
SAGUACHE       FAIR      28  21  74 NW21      29.69R WCI  15
$$

COZ035-036-038>040-220600-
...NORTHERN COLORADO FRONT RANGE...

CITY           SKY/WX    TMP DP  RH WIND       PRES   REMARKS
DENVER INTL AP MOCLDY    32  25  75 W6        29.64R WCI  26
DMNS CITY PARK   N/A     33  25  73 E3        29.66R
AURORA         MOCLDY    31  27  83 W6        29.66R WCI  26
FRONT RANGE AP NOT AVBL
ERIE MUNI ARPT CLOUDY    30  28  90 CALM      29.66R
BOULDER MUN AP FAIR      32  27  80 SW3       29.65R
CENTENNIAL     CLOUDY    31  24  75 NW3       29.65R
BROOMFIELD     MOCLDY    34  27  75 NW8       29.65R WCI  27
FORT COLLINS   FAIR      28  21  74 N6        29.66R WCI  22
LONGMONT       FAIR      32  26  80 NW5       29.68R WCI  27
$$

COZ041-046-047-076>085-087-088-220600-
...PIKES PEAK/PALMER DIVIDE AND SOUTHERN FOOTHILLS...

CITY           SKY/WX    TMP DP  RH WIND       PRES   REMARKS
COLO. SPRINGS  MOCLDY    34  19  54 NW9       29.64R WCI  27
A. F. ACADEMY  FAIR      25  18  74 N8        29.64R WCI  16
SCHRIEVER AFB  NOT AVBL
ELLICOTT       FAIR     N/A N/A N/A NE9       29.63R
FALCON         FAIR      30  21  68 N12G17    29.64R WCI  20
FORT CARSON    NOT AVBL
LIMON          FAIR      26  26 100 W7        29.64R WCI  18
MONUMENT HILL  MOCLDY    23  21  93 W9        29.66R WCI  13
TRINIDAD       CLOUDY    31  24  75 NW9       29.63R WCI  23
$$

COZ042>045-048>051-090-091-220600-
...NORTHEAST COLORADO...

CITY           SKY/WX    TMP DP  RH WIND       PRES   REMARKS
GREELEY ARPT   FAIR      29  26  89 NW3       29.67R
AKRON          CLOUDY    34  23  64 CALM      29.63R
BURLINGTON     CLOUDY    34  29  82 N7        29.62R WCI  28
WRAY           FAIR      32  28  86 CALM      29.63
STERLING       CLOUDY    32  30  93 W3        29.63R
HOLYOKE        FAIR      30  28  93 W6        29.63R WCI  24
FORT MORGAN    CLOUDY    31  24  76 CALM      29.65R
$$

COZ086-089-092>099-220600-
...SOUTHEAST COLORADO...

CITY           SKY/WX    TMP DP  RH WIND       PRES   REMARKS
PUEBLO         CLOUDY    32  27  81 NW3       29.64R
LA JUNTA       FAIR      35  31  85 N9        29.62R WCI  28
LAMAR          CLOUDY    37  31  78 N12       29.59R
SPRINGFIELD      N/A     36  32  85 N20       29.54R
$$




USA.gov is the U.S. government's official web portal to all federal, state and local government web resources and services.